Regional Weather Roundup
Issued by NWS

Home | Current Version | Previous Version | Graphics & Text | Print | Product List | Glossary On
Versions: 1 2 3 4 5 6 7 8 9 10 11 12 13 14 15 16 17 18 19 20 21 22 23 24 25 26 27 28 29 30 31 32 33 34 35 36 37 38 39 40 41 42 43 44 45 46 47 48 49 50
386
ASUS43 KMPX 221201
RWRMN
WEATHER ROUNDUP FOR MINNESOTA
NATIONAL WEATHER SERVICE TWIN CITIES/CHANHASSEN MN
700 AM CDT SUN OCT 22 2017


NOTE: "FAIR" INDICATES FEW OR NO CLOUDS BELOW 12,000 FEET WITH NO
SIGNIFICANT WEATHER AND/OR OBSTRUCTIONS TO VISIBILITY. N/A MEANS
CURRENT SKY AND/OR WEATHER CONDITIONS ARE NOT AVAILABLE.

MNZ060>063-068>070-221300-
   Twin Cities Metro

CITY           SKY/WX    TMP DP  RH WIND       PRES   REMARKS
TWIN CITIES    CLOUDY    49  42  77 W8        29.94R
6HR MIN TEMP:  49; 6HR MAX TEMP:  52;

ST PAUL        CLOUDY    50  42  74 W6        29.95R
CRYSTAL        CLOUDY    48  38  68 W7        29.92R
BLAINE         MOCLDY    50  43  76 SW7       29.93R
LAKEVILLE      CLOUDY    46  41  81 W5        29.95R
EDEN PRAIRIE   CLOUDY    47  41  80 SW6       29.94R
6HR MIN TEMP:  47; 6HR MAX TEMP:  50;

SOUTH ST PAUL  CLOUDY    49  41  74 SW5       29.94R
LAKE ELMO      FAIR      50  41  71 W8        29.94R
$$
MNZ001>005-007-008-013>017-022>024-027-028-221300-
   Northwest Minnesota

CITY           SKY/WX    TMP DP  RH WIND       PRES   REMARKS
BEMIDJI        CLEAR     42  36  77 SW12G21   29.77R
HALLOCK        CLEAR     45  36  70 W18       29.68R
ROSEAU         CLOUDY    46  41  81 SW17      29.65S
WARROAD        CLOUDY    46  41  81 SW15G24   29.64S
CROOKSTON      CLEAR     43  34  70 SW13      29.78S
FOSSTON        CLEAR     39  34  81 SW13      29.79R
DETROIT LAKES  CLEAR     43  34  70 W10       29.84S
MOORHEAD       PTCLDY    39  34  81 SW7       29.85F
PARK RAPIDS    CLEAR     41  36  82 W9        29.81S
MAHNOMEN       FAIR      41  34  78 SW15      29.81S
$$
MNZ006-009>011-018-025>026-221300-
   North Central Minnesota

CITY           SKY/WX    TMP DP  RH WIND       PRES   REMARKS
BAUDETTE       CLOUDY    46  39  76 SW15      29.67R
FLAG ISLAND    CLOUDY    46  39  76 SW20      29.58F
INTL FALLS     CLOUDY    45  41  86 SW9       29.68R
6HR MIN TEMP:  45; 6HR MAX TEMP:  48;

WASKISH        PTCLDY    46  39  76 SW17G25   29.72S
BIG FORK       PTCLDY    45  37  76 SW9       29.74S
LONGVILLE      CLEAR     45  37  76 SW12      29.81R
GRAND RAPIDS   PTCLDY    45  39  79 W9        29.80S
CRANE LAKE     CLOUDY    45  43  93 S7        29.73R
ORR            CLOUDY    45  39  81 SW7       29.71R
COOK           CLOUDY    45  41  87 SW8       29.74F
WALKER         FAIR      43  36  76 W10G18    29.79R
$$
MNZ012-019>021-037-221300-
   Northeast Minnesota

CITY           SKY/WX    TMP DP  RH WIND       PRES   REMARKS
DULUTH         CLOUDY    45  43  93 W15       29.79S
6HR MIN TEMP:  45; 6HR MAX TEMP:  52;

ELY            CLOUDY    46  43  87 SW9G20    29.74S
HIBBING        CLOUDY    43  41  93 SW5       29.76S
EVELETH        CLOUDY    45  44  95 SW9       29.77S
DULUTH HARBOR  MOCLDY    48  45  87 SW12      29.82R
TWO HARBORS    CLOUDY    50  45  81 SW8       29.77R
SILVER BAY     CLOUDY    48  45  87 SW5       29.76R
GRAND MARAIS     N/A     49  46  90 W7        29.74R
G MARAIS ARPRT CLOUDY    46  43  87 SW6       29.74R
$$
MNZ029>031-032-039>041-046>048-054>057-064-221300-
   West Central Minnesota

CITY           SKY/WX    TMP DP  RH WIND       PRES   REMARKS
FERGUS FALLS   CLEAR     37  34  87 SW6       29.90S
WHEATON        CLEAR     39  34  81 S5        29.93R
MORRIS         CLEAR     39  37  93 W8        29.92R
ALEXANDRIA     CLEAR     41  36  82 SW7       29.90R
ELBOW LAKE     FAIR      36  35  94 W8        29.90R
WADENA         CLEAR     43  36  75 W8        29.85S
GLENWOOD       CLEAR     41  37  87 SW10      29.91R
APPLETON       CLEAR     39  36  87 SW8       29.94R
BENSON         CLEAR     39  36  87 W9        29.95R
ORTONVILLE     CLEAR     39  34  81 W3        29.94R
MADISON        CLEAR     39  36  87 W6        29.95R
WILLMAR        FAIR      39  37  93 SW7       29.95R
$$
MNZ033>034-036-042>043-049>051-058-059-221300-
   Central Minnesota

CITY           SKY/WX    TMP DP  RH WIND       PRES   REMARKS
ST CLOUD       CLOUDY    44  40  85 W7        29.92R
6HR MIN TEMP:  43; 6HR MAX TEMP:  47;

SAUK CENTRE    FAIR      40  37  88 SW6       29.91R
PAYNESVILLE    CLEAR     41  39  93 SW6       29.93R
AITKIN         MOCLDY    43  37  81 SW8       29.82S
PINE RIVER     CLEAR     41  36  81 SW3       29.86S
BRAINERD       CLOUDY   N/A N/A N/A SW8       29.86R
STAPLES        CLEAR     41  36  81 SW8       29.86R
LONG PRAIRIE   FAIR      39  36  87 S7        29.90R
LITTLE FALLS   CLOUDY    41  34  75 SW3       29.89R
LITCHFIELD     CLOUDY    45  41  87 CALM      29.95R
BUFFALO        CLOUDY    46  40  81 S6        29.95R
MAPLE LAKE     MOCLDY    46  42  85 SW3       29.94R
HUTCHINSON     CLEAR     43  40  89 W3        29.96R
$$
MNZ037-044-045-052-053-221300-
   East Central Minnesota

CITY           SKY/WX    TMP DP  RH WIND       PRES   REMARKS
PRINCETON      CLOUDY    46  43  87 S7        29.92R
MORA           CLOUDY    45  41  87 W6        29.90R
CAMBRIDGE      CLOUDY    48  39  71 SW7       29.91R
RUSH CITY      CLOUDY    47  40  78 SW6       29.90R
MOOSE LAKE     CLOUDY    45  41  87 SW6       29.83R
HINCKLEY       FAIR      45  43  93 SW8       29.88R
CLOQUET        CLOUDY    45  39  81 SW7       29.81R
MCGREGOR       CLOUDY    45  41  87 SW6       29.84R
$$
MNZ071>073-080-081-089-090-097-098-221300-
   Southwest Minnesota

CITY           SKY/WX    TMP DP  RH WIND       PRES   REMARKS
MONTEVIDEO     CLEAR     39  36  87 W5        29.95R
GRANITE FALLS  CLEAR     39  36  89 SW8       29.98R
CANBY          CLEAR     43  35  73 SW10      29.97R
MARSHALL       CLEAR     43  35  73 W5        29.98R
REDWOOD FALLS  CLEAR     44  36  73 SW9       29.96R
OLIVIA         CLEAR     39  36  87 SW6       29.95R
PIPESTONE      CLEAR     34  30  86 SW5       30.01R WCI  30
WORTHINGTON    PTCLDY    40  36  86 SW9       30.02R
JACKSON        PTCLDY    41  36  81 SW7       30.01R
TRACY          CLEAR     43  37  80 SW8       29.98S
SLAYTON        CLEAR     42  36  79 W9        30.01R
$$
MNZ065>067-074>077-082>085-091>093-221300-
   South Central Minnesota

CITY           SKY/WX    TMP DP  RH WIND       PRES   REMARKS
MANKATO        MOCLDY    45  40  82 SW3       29.98R
NEW ULM          N/A     41  37  87 CALM      29.97R
ST JAMES       PTCLDY    43  39  87 SW7       30.00R
FAIRMONT       CLOUDY    45  39  79 W8        30.01R
GLENCOE        CLOUDY    45  41  87 SW3       29.95R
FARIBAULT      MOCLDY    48  41  76 W6        29.97R
OWATONNA       PTCLDY    46  43  87 SW5       29.97S
WASECA         MOCLDY    45  41  87 W5        29.98S
$$
MNZ078>079-086>088-094>096-221300-
   Southeast Minnesota

CITY           SKY/WX    TMP DP  RH WIND       PRES   REMARKS
ROCHESTER      CLOUDY    47  43  86 W7        29.97R
6HR MIN TEMP:  47; 6HR MAX TEMP:  51;

RED WING       CLOUDY    50  41  71 W5        29.94R
STANTON        CLOUDY    49  41  74 SW5       29.95R
DODGE CENTER   CLOUDY    46  41  81 W7        29.96S
WINONA         CLOUDY    52  45  76 NW6       29.96R
AUSTIN         CLOUDY    48  41  76 W7        29.98R
PRESTON        CLOUDY    47  42  82 NW7       29.96F
$$
ABBREVIATIONS USED IN REMARKS
   TC - TEMPERATURES IN CELSIUS
  WCI - WIND CHILL INDEX
   HX - HEAT INDEX
  VSB - VISIBILITY
$$




USA.gov is the U.S. government's official web portal to all federal, state and local government web resources and services.